FENGYUN 1C DEB, 37067

Orbit data source: Space-Track

FENGYUN 1C DEB, 37067 is space debris in SSO originally from a launch on Mon, 10 May 1999 UTC launched from the Taiyaun Space Center, China (TSC). Fengyun 1C debris stems from the Chinese weather satellite Fengyun-1C, which was intentionally destroyed by a Chinese anti-satellite missile in 2007. This event dramatically increased the amount of space debris, with thousands of trackable fragments posing hazards to satellites and human spaceflight. The Fengyun 1C debris cloud has become a focal point in discussions about space sustainability and the need for international regulations to prevent the creation of new debris.

Loading next visibility...
Identifier
37067, 1999-025EFB
Orbit
SSO
Country
Flag of CNCN / PRC
Related business
Manufacturer
Unknown
Mission
Spacecraft
Bus & Motor
Unknown
Mass
Unknown
Launch date (UTC)
1999-05-10 (27 years ago)
Launch vehicle
Unknown
Launch site
Taiyaun Space Center, China (TSC)
Object type
Payload
Rocket body
Debris
Shape & HBR
Unknown shape, 0.1 m
Radar Cross Section
Small (<0.1 m²)

Expand to show TLE details & history
Last TLE update: 4 weeks ago

TLE from 4 weeks ago
0 FENGYUN 1C DEB
1 37067U 99025EFB 26036.56314670  .00019290  00000-0  11462-1 0  9993
2 37067  99.5404 345.5317 0156090 325.4238  33.6852 14.01566829581768
Epoch: 2026-02-05T13:30Z
TLE epoch observation values (Epoch: 2026-02-05T13:30:55.874Z)
Latitude
0.00001°
Longitude
7.08531°
Altitude
797.396 km
Speed
7.503 km/s
True Right ascension
23h 02m 07s
True Declination
0° 00' 00"
Sunlit
Object was in daylight at epoch
Visualization orbit readout
Latitude
Unknown
Longitude
Unknown
Altitude
Unknown
Speed
Unknown
Apparent Right ascension
Unknown
Apparent Declination
Unknown
Sunlit
N/A
Visualization observer readout
Local Sidereal Time
12:36:20
Azimuth
Unknown
Elevation
Unknown
Doppler factor
Unknown
Orbital elements
Apogee altitude
998.978 km
Perigee altitude
772.218 km
Semi-major axis
7,263.735 km
Eccentricity
0.01561
Inclination
99.5404°
RAAN
345.5317°
Arg. of periapsis
325.4238°
True anomaly
34.69355°
Mean anomaly
33.6852°
Eccentric anomaly
34.18773°
Mean motion
3.50593 °/min
Orbital period
102.68 mins
BSTAR
0.011462
Loading maneuver chart data...
Computing Atmospheric mass density...
Loading historical data...
Loading historical data...
Loading historical data...
Loading historical data...
Loading historical data...
Loading historical data...
Loading historical data...

Documentation

Showing up to 5 results
|